Flag for Lebanon Weather past 2 weeks in Beirut, Lebanon

Now
72 °F

Partly sunny.


Feels Like: 75 °F
Forecast: 61 / 69 °F
Wind: 7 mph from North

Location: Beirut Airport

Current Time: Mar 28, 2015 at 2:54:40 PM

Latest Report: Mar 28, 2015 at 2:00 PM


Visibility: 4 mi

Pressure: 29.86 "Hg

Humidity: 65%

Dew point: 59 °F

Location of BeirutLocation

Historic Weather in Beirut — Graph

°F

Beirut temperature yesterday

Maximum temperature yesterday: 79 °F (at 12:00 PM)
Minimum temperature yesterday: 61 °F (at 4:00 AM)
Average temperature yesterday: 69 °F

Past Weeks' High & Low Weather Summary

 TemperatureHumidityPressure
High82 °F (Mar 28, 6:00 AM)83% (Mar 19, 6:00 AM)30.21 "Hg (Mar 19, 6:00 AM)
Low54 °F (Mar 22, 4:00 AM)21% (Mar 27, 12:00 PM)29.65 "Hg (Mar 28, 5:00 AM)
Average62 °F59%30.06 "Hg
* Reported Mar 13 1:00 PM — Mar 28 1:00 PM, Beirut, Weather by CustomWeather, © 2015

Note: Actual official high and low records may vary slightly from our data, if they occured in-between our weather recording intervals... More about our weather records

Advertising

Beirut weather history for previous 24 hours

 ConditionsComfort  
Time TempWeatherWind HumidityBarometerVisibility
1:00 PM
Sat, Mar 28
75 °FPartly sunny.2 mph50%29.89 "Hg4 mi
12:00 PM72 °FPartly sunny.2 mph57%29.89 "Hg4 mi
11:00 AM75 °FPartly sunny.6 mph50%29.83 "Hg4 mi
10:00 AM77 °FPartly sunny.5 mph42%29.77 "Hg4 mi
9:00 AM72 °FPartly sunny.3 mph65%29.77 "Hg4 mi
8:00 AM70 °FPartly sunny.6 mph73%29.77 "Hg4 mi
7:00 AM73 °FPartly sunny.3 mph36%29.68 "Hg4 mi
6:00 AM82 °FPartly sunny.5 mph23%29.68 "Hg5 mi
5:00 AM79 °FPassing clouds.3 mph26%29.65 "Hg5 mi
4:00 AM73 °FPassing clouds.9 mph41%29.68 "Hg5 mi
3:00 AM75 °FPassing clouds.7 mph36%29.68 "Hg5 mi
2:00 AM73 °FPassing clouds.7 mph38%29.74 "Hg5 mi
1:00 AM72 °FPassing clouds.5 mph44%29.74 "Hg5 mi
12:00 AM73 °FPassing clouds.6 mph41%29.77 "Hg5 mi
11:00 PM
Fri, Mar 27
68 °FPassing clouds.3 mph73%29.86 "Hg5 mi
10:00 PM68 °FPassing clouds.6 mph64%29.83 "Hg4 mi
9:00 PM70 °FPassing clouds.1 mph53%29.83 "Hg4 mi
8:00 PM73 °FPassing clouds.6 mph47%29.83 "Hg4 mi
7:00 PM73 °FPassing clouds.7 mph47%29.86 "Hg4 mi
6:00 PM77 °FPassing clouds.5 mph26%29.86 "Hg5 mi
5:00 PM72 °FPartly sunny.7 mph61%29.89 "Hg5 mi
4:00 PM77 °FPartly sunny.5 mph34%29.92 "Hg5 mi
3:00 PM77 °FPartly sunny.3 mph32%29.95 "Hg5 mi
2:00 PM75 °FScattered clouds.7 mph34%29.95 "Hg5 mi
Weather by CustomWeather, © 2015

See weather overviewHow to use our weather pages